Location: Niles Junction
(37.5763°N, 121.9714°W)
Time: 03:36:35
(UTC+00:00)

Cosmos 1400 Rocket - Pass Details

Date: 29 October 2020
Orbit: 521 x 568 km, 81.2° (Epoch: 23 November)

Event Time Altitude Azimuth Distance (km) Brightness Sun altitude
Rises 12:44:20 0° 355° (N) 2,687 6.3 -21.5°
Reaches altitude 10° 12:46:32 10° 360° (N) 1,785 5.4 -21.1°
Maximum altitude 12:50:24 58° 79° (E) 620 3.3 -20.3°
Drops below altitude 10° 12:54:12 10° 159° (SSE) 1,754 5.7 -19.6°
Sets 12:56:21 0° 164° (SSE) 2,634 6.5 -19.2°
